User: anonymous
Location: Goheenville
(40.9070°N, 79.3720°W)
Time: 09:08:35
(UTC-04:00)
Language:

Meteor 2-10 Rocket - Orbit

View from above orbital plane
View from above orbital plane
View from above satellite
View from above satellite

Ground track
Ground track

The orbit data is extracted from the following two-line orbital elements,

1 14453U 83109B   14210.27281100  .00000069  00000-0  23111-4 0  1996
2 14453 081.1658 086.4414 0104364 231.9115 262.6908 14.24503677597479
Epoch (UTC): 29 July 2014 06:32:50
Eccentricity: 0.0104364
inclination: 81.1658°
perigee height: 735 km
apogee height: 885 km
right ascension of ascending node: 86.4414°
argument of perigee: 231.9115°
revolutions per day: 14.24503677
mean anomaly at epoch: 262.6908°
orbit number at epoch: 59747

The dashed part of the orbit path shows where the satellite is in the earth's shadow,  

DLR